Location: Pcim
(49.7500°N, 19.9670°E)
Time: 03:29:11
(UTC+02:00)

AO-91 - Pass Details

Date: 26 April 2024
Orbit: 441 x 736 km, 97.6° (Epoch: 23 May)

Event Time Altitude Azimuth Distance (km) Brightness Sun altitude
Rises 22:48:14 0° 9° (N) 2,446 ? -21.9°
Reaches altitude 10° 22:50:16 10° 5° (N) 1,577 ? -22.1°
Maximum altitude 22:53:32 53° 287° (WNW) 565 ? -22.3°
Enters shadow 22:53:40 53° 276° (W) 569 ? -22.4°
